Location: ??
(34.9170°N, 135.5016°E)
Time: 22:51:59
(UTC+00:00)

S-56A Canister/Altair - Pass Details

Date: 11 March 2021
Orbit: 632 x 2500 km, 38.9° (Epoch: 12 April)

Event Time Altitude Azimuth Distance (km) Brightness Sun altitude
Rises 09:56:48 0° 290° (WNW) 6,169 13.8 -12.0°
Reaches altitude 10° 10:01:32 10° 282° (WNW) 5,161 13.2 -13.0°
Maximum altitude 10:13:31 31° 228° (SW) 3,461 11.2 -15.4°
Drops below altitude 10° 10:23:40 10° 172° (S) 4,313 11.2 -17.5°
Sets 10:27:15 0° 162° (SSE) 5,046 11.4 -18.2°
